Lawton, OK

9:59 PM CST on December 12, 2017 (GMT -0600)
Lawton-Fort Sill Regional

Weather History for KLAW - October, 2013

Change the Weather History Date:

Monday, October 28, 2013

  Actual Average Record
Temperature  
Mean Temperature 62 °F 59 °F  
Max Temperature 70 °F 72 °F 91 °F (1950)
Min Temperature 53 °F 46 °F 25 °F (1925)
Degree Days  
Heating Degree Days 4 7  
Month to date heating degree days 104  
Since 1 July heating degree days 115  
Cooling Degree Days 0 1  
Month to date cooling degree days 81  
Year to date cooling degree days 2310  
Growing Degree Days 12 (Base 50)    
Moisture  
Dew Point 59 °F    
Average Humidity 90    
Maximum Humidity 100    
Minimum Humidity 78    
Precipitation  
Precipitation 0.00 in 0.10 in 3.25 in (1962)
Month to date precipitation 3.41  
Year to date precipitation 27.40  
Sea Level Pressure  
Sea Level Pressure 30.00 in    
Wind  
Wind Speed 8 mph (SE)    
Max Wind Speed 18 mph    
Max Gust Speed 28 mph    
Visibility 5 miles    
Events Fog    
T = Trace of Precipitation, MM = Missing Value Source: NWS Daily Summary

Daily Weather History Graph

Daily Weather History Graph

Search for Another Location

Airport or City:

Trip Planner

Search our weather history database for the weather conditions in past years. The results will help you decide how hot, cold, wet, or windy it might be!

Date:

Astronomy

Oct. 28, 2013 Rise Set
Actual Time 7:50 AM CDT 6:43 PM CDT
Civil Twilight 7:24 AM CDT 7:09 PM CDT
Nautical Twilight 6:55 AM CDT 7:39 PM CDT
Astronomical Twilight 6:25 AM CDT 8:08 PM CDT
Moon 1:59 AM CDT (10/28) 3:13 PM CDT (10/28)
Length of Visible Light 11h 44m
Length of Day
10h 53m
Waning Crescent, 34% of the Moon is Illuminated
Oct 28
Waning Crescent
Nov 3
New
Nov 9
First Quarter
Nov 17
Full
Nov 25
Last Quarter

Hourly Weather History & Observations

Time (CDT) Temp. Dew Point Humidity Pressure Visibility Wind Dir Wind Speed Gust Speed Precip Events Conditions
12:53 AM 55.0 °F 54.0 °F 96% 29.99 in 5.0 mi SE 5.8 mph - N/A   Clear
1:53 AM 54.0 °F 53.1 °F 97% 29.99 in 4.0 mi SSE 5.8 mph - N/A   Clear
2:53 AM 54.0 °F 53.1 °F 97% 29.99 in 4.0 mi SSE 5.8 mph - N/A   Clear
3:14 AM 53.6 °F 53.6 °F 100% 30.00 in 3.0 mi SSE 5.8 mph - N/A   Partly Cloudy
3:35 AM 53.6 °F 53.6 °F 100% 30.00 in 3.0 mi SSE 6.9 mph - N/A   Mostly Cloudy
3:53 AM 55.0 °F 54.0 °F 96% 29.99 in 2.5 mi SSE 5.8 mph - N/A   Overcast
4:05 AM 55.4 °F 53.6 °F 94% 30.00 in 1.8 mi SSE 4.6 mph - N/A   Overcast
4:41 AM 55.4 °F 53.6 °F 94% 30.00 in 0.8 mi SSE 5.8 mph - N/A   Mist
4:53 AM 55.0 °F 54.0 °F 96% 29.99 in 0.5 mi SSE 6.9 mph - N/A Fog Fog
5:53 AM 55.9 °F 55.0 °F 97% 30.00 in 0.5 mi SSE 6.9 mph - N/A Fog Fog
6:22 AM 55.4 °F 55.4 °F 100% 30.02 in 0.2 mi SSE 6.9 mph - N/A Fog Fog
6:53 AM 55.9 °F 55.9 °F 100% 30.02 in 0.2 mi SSE 6.9 mph - N/A Fog Fog
7:43 AM 57.2 °F 55.4 °F 94% 30.03 in 0.5 mi ESE 5.8 mph - N/A Fog Fog
7:53 AM 57.0 °F 55.9 °F 96% 30.03 in 0.5 mi ESE 6.9 mph - N/A Fog Fog
8:20 AM 57.2 °F 55.4 °F 94% 30.04 in 1.5 mi SE 5.8 mph - N/A   Overcast
8:29 AM 57.2 °F 55.4 °F 94% 30.04 in 2.5 mi SE 5.8 mph - N/A   Overcast
8:45 AM 57.2 °F 55.4 °F 94% 30.05 in 4.0 mi SE 4.6 mph - N/A   Overcast
8:53 AM 57.0 °F 57.0 °F 100% 30.05 in 4.0 mi SE 6.9 mph - N/A   Overcast
9:53 AM 57.9 °F 57.0 °F 97% 30.06 in 3.0 mi SE 6.9 mph - N/A   Overcast
10:37 AM 57.2 °F 57.2 °F 100% 30.07 in 2.5 mi SSE 6.9 mph - N/A   Overcast
10:46 AM 59.0 °F 57.2 °F 94% 30.07 in 3.0 mi SSE 8.1 mph - N/A   Overcast
10:53 AM 59.0 °F 57.9 °F 96% 30.07 in 2.5 mi SSE 9.2 mph - N/A   Overcast
11:11 AM 60.8 °F 59.0 °F 94% 30.07 in 3.0 mi SSE 9.2 mph - N/A   Overcast
11:31 AM 60.8 °F 59.0 °F 94% 30.07 in 2.0 mi SSE 11.5 mph - N/A   Overcast
11:53 AM 62.1 °F 60.1 °F 93% 30.06 in 2.0 mi SSE 11.5 mph - N/A   Overcast
12:07 PM 62.6 °F 60.8 °F 94% 30.06 in 4.0 mi SSE 9.2 mph - N/A   Overcast
12:36 PM 64.4 °F 60.8 °F 88% 30.05 in 7.0 mi SE 12.7 mph - N/A   Overcast
12:53 PM 64.9 °F 61.0 °F 87% 30.04 in 9.0 mi SE 13.8 mph 21.9 mph N/A   Overcast
1:53 PM 66.0 °F 62.1 °F 87% 30.00 in 8.0 mi SE 11.5 mph - N/A   Overcast
2:53 PM 66.0 °F 62.1 °F 87% 29.98 in 8.0 mi SE 12.7 mph 19.6 mph N/A   Overcast
3:38 PM 68.0 °F 62.6 °F 83% 29.98 in 7.0 mi ESE 13.8 mph - N/A   Overcast
3:53 PM 68.0 °F 63.0 °F 84% 29.96 in 7.0 mi ESE 15.0 mph - N/A   Overcast
4:13 PM 69.8 °F 62.6 °F 78% 29.96 in 8.0 mi ESE 15.0 mph - N/A   Overcast
4:25 PM 69.8 °F 62.6 °F 78% 29.97 in 8.0 mi SE 17.3 mph - N/A   Overcast
4:32 PM 69.8 °F 62.6 °F 78% 29.97 in 8.0 mi ESE 12.7 mph - N/A   Overcast
4:53 PM 70.0 °F 63.0 °F 78% 29.94 in 9.0 mi ESE 11.5 mph - N/A   Overcast
5:18 PM 69.8 °F 62.6 °F 78% 29.96 in 9.0 mi ESE 16.1 mph - N/A   Overcast
5:53 PM 70.0 °F 64.0 °F 81% 29.94 in 10.0 mi ESE 12.7 mph - N/A   Overcast
6:17 PM 69.8 °F 64.4 °F 83% 29.95 in 10.0 mi ESE 13.8 mph - N/A   Overcast
6:44 PM 69.8 °F 64.4 °F 83% 29.96 in 10.0 mi SE 13.8 mph - N/A   Overcast
6:53 PM 70.0 °F 64.0 °F 81% 29.95 in 10.0 mi SE 13.8 mph - N/A   Overcast
7:53 PM 70.0 °F 64.0 °F 81% 29.95 in 10.0 mi SSE 16.1 mph 23.0 mph N/A   Overcast
8:53 PM 70.0 °F 64.0 °F 81% 29.96 in 10.0 mi SSE 18.4 mph 24.2 mph N/A   Overcast
9:53 PM 70.0 °F 64.0 °F 81% 29.96 in 10.0 mi SSE 17.3 mph 25.3 mph N/A   Overcast
10:53 PM 69.1 °F 64.0 °F 84% 29.97 in 10.0 mi SE 15.0 mph 27.6 mph N/A   Overcast
11:53 PM 68.0 °F 64.0 °F 87% 29.99 in 10.0 mi SE 15.0 mph - N/A   Overcast